Regional Weather Roundup
Issued by NWS

Home | Current Version | Previous Version | Text Only | Print | Product List | Glossary Off
Versions: 1 2 3 4 5 6 7 8 9 10 11 12 13 14 15 16 17 18 19 20 21 22 23 24 25 26 27 28 29 30 31 32 33 34 35 36 37 38 39 40 41 42 43 44 45 46 47 48 49 50

000
ASUS43 KLOT 281406
RWRIL

ILLINOIS REGIONAL WEATHER ROUNDUP
NATIONAL WEATHER SERVICE CHICAGO/ROMEOVILLE IL
800 AM CST SAT FEB 28 2015

NOTE: "FAIR" INDICATES FEW OR NO CLOUDS BELOW 12,000 FEET WITH NO
SIGNIFICANT WEATHER AND/OR OBSTRUCTIONS TO VISIBILITY.

* THESE STATIONS ARE NOT UNDER NWS QUALITY CONTROL. THEY ALSO MAY NOT
  REPORT WEATHER SUCH AS PRECIPITATION OR FOG.

ILZ001-002-007-009-015-016-024-281500-
NORTHWEST ILLINOIS

CITY           SKY/WX    TMP DP  RH WIND       PRES   REMARKS
MOLINE         MOSUNNY  -10 -17  71 E3        30.67S
STERLING*      PTSUNNY   -9 -13  84 E5        30.68S WCI -21
SAVANNA*       PTSUNNY  -14 -20  75 CALM      30.70R
$$

ILZ003-004-008-010-011-017-018-281500-
NORTH CENTRAL ILLINOIS

CITY           SKY/WX    TMP DP  RH WIND       PRES   REMARKS
ROCKFORD       PTSUNNY  -11 -17  75 CALM      30.71R
FREEPORT*      PTSUNNY  -15 -20  78 CALM      30.69R
ROCHELLE*      MOSUNNY  -11 -15  81 SE3       30.69S
DE KALB*       MOSUNNY   -8 -13  80 S5        30.68S WCI -20
PERU*          MOSUNNY    0  -5  81 E5        30.71R WCI -10
$$

ILZ005-006-012>014-019>023-281500-
NORTHEAST ILLINOIS

CITY           SKY/WX    TMP DP  RH WIND       PRES   REMARKS
CHICAGO-OHARE  MOSUNNY    0  -3  87 S3        30.71R
CHICAGO-MIDWAY MOSUNNY    5   2  87 S5        30.73R WCI  -4
AURORA         PTSUNNY  -11 -16  78 CALM      30.71R
LANSING*       MOSUNNY   -6 -10  81 CALM      30.74R
JOLIET*        MOSUNNY   -3  -7  83 CALM      30.73S FOG
WAUKEGAN       MOSUNNY    0  -5  79 SW5       30.70R WCI -10
DUPAGE AIRPORT MOSUNNY   -6  -9  86 CALM      30.69S
KANKAKEE*      MOSUNNY    1  -3  83 E3        30.73R
WHEELING       MOSUNNY   -1  -5  82 CALM      30.73R
MORRIS*        FOG       -8 -11  85 CALM      30.72S VSB 1/4
ROMEOVILLE*    MOSUNNY   -3  -8  81 SE3       30.72R
NORTHERLY ISL    N/A      9  -3  58 SW1         N/A
$$

LMZ740>746-281500-
SOUTHERN LAKE MICHIGAN

STATION/POSITION SKY/WX   TEMP    WIND        PRES    VSBY  WAVE
                          AIR SEA DIR/SP/G                  HT/PER
                          (F)     (DEG/KT/KT) (MB)    (MI)  (FT/S)
WAUKEGAN HARBOR             3     250/  4/  7   N/A
HARRISON CRIB               9     190/ 11/ 13   N/A
BURNHAM HARBOR              9     200/  4/  5   N/A
CALUMET HARBOR              4     170/  3/  4 1039.1S
MICHIGAN CITY               3     120/  5/  7   N/A
$$

ILZ025>027-034>036-040-047-049-050-058-095>099-281500-
WEST-CENTRAL ILLINOIS

CITY           SKY/WX    TMP DP  RH WIND       PRES   REMARKS
QUINCY         SUNNY      8  -1  66 SE7       30.62S WCI  -3
GALESBURG*     CLOUDY     3  -1  83 SE6       30.65S WCI  -8
MACOMB*        CLOUDY     4   0  83 E5        30.67S WCI  -5
JACKSONVILLE*  CLOUDY     6   0  76 E6        30.67R WCI  -4
PITTSFIELD*    CLOUDY    11   4  73 E5        30.65S WCI   3
$$

ILZ028>032-037-038-041>044-048-051>054-059>061-281500-
CENTRAL ILLINOIS

CITY           SKY/WX    TMP DP  RH WIND       PRES   REMARKS
PONTIAC        MOSUNNY    3  -2  81 E9        30.71R WCI -12
BLOOMINGTON    PTSUNNY   12   2  64 SE5       30.67S WCI   4
DECATUR        CLOUDY    11   3  70 E8        30.67F WCI  -1
PEORIA         CLOUDY    10   1  67 E7        30.68S WCI  -1
LACON*         MOSUNNY   -6 -10  81 CALM      30.70R
LINCOLN*       CLOUDY    13   4  68 E7        30.71S WCI   2
SPRINGFIELD    CLOUDY    10   2  69 E6        30.67S WCI   0
TAYLORVILLE    CLOUDY    12   3  67 E7        30.67R WCI   2
$$

ILZ033-039-045-046-055>057-062-063-281500-
EAST-CENTRAL ILLINOIS

CITY           SKY/WX    TMP DP  RH WIND       PRES   REMARKS
CHAMPAIGN      CLOUDY    11   3  70 E9        30.68R WCI  -2
DANVILLE*      PTSUNNY   10   2  69 E3        30.67S
RANTOUL*       CLOUDY    13   5  70 E8        30.68S WCI   2
MATTOON        CLOUDY    14   3  61 SE7       30.66S WCI   4
PARIS*         CLOUDY    11   5  75 E3        30.70S
$$

ILZ079-100>102-281500-
SOUTHWEST ILLINOIS

CITY           SKY/WX    TMP DP  RH WIND       PRES   REMARKS
ALTON          CLOUDY    14   1  57 E8        30.67R WCI   3
BELLEVILLE     CLOUDY    17   6  61 E5        30.66R WCI  10
CAHOKIA*       CLOUDY    19   6  57 SE5       30.66S WCI  12
SPARTA*        CLOUDY    19   8  63 E6        30.66R WCI  10
$$

ILZ064>066-069>071-074>076-080>082-084>086-088>090-092>094-281500-
SOUTH-CENTRAL ILLINOIS

CITY           SKY/WX    TMP DP  RH WIND       PRES   REMARKS
CARBONDALE     CLOUDY    20   8  60 E7        30.66R WCI  11
CAIRO*         PTSUNNY   24  14  65 NE8       30.65R WCI  15
EFFINGHAM*     CLOUDY    15   2  56 E7        30.69S WCI   6
MARION         CLOUDY    21   9  58 NE7       30.66S WCI  13
MT. VERNON     CLOUDY    18   7  62 E7        30.67R WCI   8
CENTRALIA*     PTSUNNY   17   6  63 E6        30.66S WCI   8
SALEM*         CLOUDY    17   6  60 E6        30.67S WCI   9
METROPOLIS*    CLOUDY    22  13  67 NE5       30.63F WCI  16
$$

ILZ067-068-072-073-078-083-087-091-281500-
SOUTHEAST ILLINOIS

CITY           SKY/WX    TMP DP  RH WIND       PRES   REMARKS
LAWRENCEVILLE  CLOUDY    17   6  62 NE7       30.71R WCI   8
FLORA*         CLOUDY    15   6  67 NE6       30.69S WCI   6
FAIRFIELD*     CLOUDY    19  10  67 NE5       30.68R WCI  12
HARRISBURG*    CLOUDY    21  12  68 E6        30.68R WCI  14
ROBINSON*      CLOUDY    17   6  63 E6        30.72R WCI   8
CARMI*         CLOUDY    24  15  69 E8        30.68R WCI  14
$$

ABBREVIATIONS USED IN REMARKS
   TC - TEMPERATURE IN CELSIUS
  WCI - WIND CHILL INDEX
   HX - HEAT INDEX
  VSB - VISIBILITY
$$



USA.gov is the U.S. government's official web portal to all federal, state and local government web resources and services.